This is the latest recevied weather packets stored in our database for station/object ED4YAF-13. If no packets are shown the sender has not sent any weather packets the latest 10 day(s).
| Time | Temp. | Humidity | Pressure | Rain* | Wind** | Luminosity | Snow |
|---|---|---|---|---|---|---|---|
| 1788223310 | 15° C | 75% | 1019.6 hPa | - | - | - | - |
| 1788222410 | 15° C | 73% | 1019.7 hPa | - | - | - | - |
| 1788221510 | 15° C | 72% | 1019.6 hPa | - | - | - | - |
| 1788221085 | 15.56° C | 69% | 1019.6 hPa | - | - | - | - |
| 1788220610 | 15.56° C | 69% | 1019.6 hPa | - | - | - | - |
| 1788219710 | 15.56° C | 65% | 1019.3 hPa | - | - | - | - |
| 1788218810 | 16.11° C | 61% | 1019.3 hPa | - | - | - | - |
| 1788217910 | 16.11° C | 59% | 1019.2 hPa | - | - | - | - |
| 1788217007 | 16.11° C | 59% | 1018.9 hPa | - | - | - | - |
| 1788216103 | 16.67° C | 59% | 1018.8 hPa | - | - | - | - |
| 1788215203 | 16.67° C | 59% | 1018.7 hPa | - | - | - | - |
| 1788214303 | 16.67° C | 58% | 1018.6 hPa | - | - | - | - |
| 1788213401 | 16.67° C | 58% | 1018.5 hPa | - | - | - | - |
| 1788212501 | 17.22° C | 58% | 1018.3 hPa | - | - | - | - |
| 1788211601 | 17.22° C | 57% | 1018.1 hPa | - | - | - | - |
| 1788210700 | 17.22° C | 58% | 1017.9 hPa | - | - | - | - |
| 1788209870 | 17.78° C | 58% | 1017.8 hPa | - | - | - | - |
| 1788209801 | 17.78° C | 58% | 1017.8 hPa | - | - | - | - |
| 1788208901 | 17.78° C | 57% | 1017.6 hPa | - | - | - | - |
| 1788208198 | 18.33° C | 55% | 1017.3 hPa | - | - | - | - |
| 1788208001 | 18.33° C | 55% | 1017.3 hPa | - | - | - | - |
| 1788207100 | 18.33° C | 54% | 1016.9 hPa | - | - | - | - |
| 1788206201 | 18.89° C | 53% | 1016.6 hPa | - | - | - | - |
| 1788205301 | 18.89° C | 50% | 1016.2 hPa | - | - | - | - |
| 1788204401 | 19.44° C | 48% | 1015.7 hPa | - | - | - | - |
* Rain since midnight (hover to see other rain measurements)
** Current wind speed in m/s (hover to see current wind gust speed)